Regional Weather Roundup
Issued by NWS

Home | Current Version | Previous Version | Graphics & Text | Print | Product List | Glossary On
Versions: 1 2 3 4 5 6 7 8 9 10 11 12 13 14 15 16 17 18 19 20 21 22 23 24 25 26 27 28 29 30 31 32 33 34 35 36 37 38 39 40 41 42 43 44 45 46 47 48 49 50
000
ASUS44 KMEG 031110
RWRTN
TENNESSEE HOURLY STATE WEATHER ROUNDUP
NATIONAL WEATHER SERVICE MEMPHIS TN
600 AM CDT THU SEP 03 2015

TNZ002-004-019-021-049-052-054-088>092-031200-
WEST TENNESSEE

CITY           SKY/WX    TMP DP  RH WIND       PRES   REMARKS
MEMPHIS INTL   CLEAR     72  70  93 SW5       30.02R
NWS MEMPHIS      N/A    N/A N/A N/A MISG        N/A
JACKSON        CLEAR     68  66  93 CALM      30.02R
DYERSBURG      CLEAR     70  68  94 CALM      30.02S
UNION CITY     CLEAR    N/A N/A N/A CALM      30.01R
PARIS          CLEAR     64  64 100 NE3       30.02S
LEXINGTON        N/A     66  66 100 CALM      30.01S VSB 1/2
$$

TNZ008-025-027-028-033-062-065-066-031200-
NORTH MIDDLE TENNESSEE

CITY           SKY/WX    TMP DP  RH WIND       PRES   REMARKS
NASHVILLE      PTCLDY    73  69  87 CALM      30.03R
CLARKSVILLE    CLEAR     68  66  93 CALM      30.02R
SMYRNA         MOCLDY    71  70  97 CALM      30.03R
COOKEVILLE     CLEAR     66  66 100 CALM      30.04S
CROSSVILLE     PTCLDY    67  65  93 CALM      30.09R FOG
$$

TNZ061-075-076-078-094-096-097-031200-
SOUTH MIDDLE TENNESSEE

CITY           SKY/WX    TMP DP  RH WIND       PRES   REMARKS
FAYETTEVILLE   CLEAR     70  70 100 CALM      30.03S
TULLAHOMA      CLEAR     70  66  88 CALM      30.05S
WINCHESTER     CLEAR     70  68  94 CALM      30.03F
MCMINNVILLE    CLEAR     70  70 100 CALM      30.04S
COLUMBIA       CLEAR    N/A N/A N/A CALM      30.02R
SHELBYVILLE    CLEAR     72  70  94 CALM      30.04R
$$

TNZ017-018-042-046-047-031200-
NORTHEAST TENNESSEE

CITY           SKY/WX    TMP DP  RH WIND       PRES   REMARKS
TRI CITIES     MOCLDY    64  63  96 CALM      30.07R FOG
ELIZABETHTON   SUNNY     61  61 100 CALM      30.08R
$$

TNZ012-013-036-069-073-074-031200-
CENTRAL EAST TENNESSEE

CITY           SKY/WX    TMP DP  RH WIND       PRES   REMARKS
KNOXVILLE      CLOUDY    71  70  96 E5        30.02S
OAK RIDGE      CLOUDY    70  67  90 CALM      30.05R
GATLINBURG     SUNNY     66  64  94 E3        30.04R
MORRISTOWN     SUNNY     68  66  94 CALM      30.06S
$$

TNZ083-085-099-031200-
SOUTHEAST TENNESSEE

CITY           SKY/WX    TMP DP  RH WIND       PRES   REMARKS
CHATTANOOGA    MOCLDY    75  71  87 N3        30.01S
$$

SKY/WX REPORTED AS FAIR MEANS FEW OR NO CLOUDS BELOW
12 THOUSAND FEET.



USA.gov is the U.S. government's official web portal to all federal, state and local government web resources and services.